Home   Weather   Riga   Past weeks
Flag for Latvia

Past Weather in Riga, Latvia — Yesterday and Last 2 Weeks

Now
45 °F

Passing clouds.


Feels Like: 40 °F
Forecast: 49 / 33 °F
Wind: 8 mph from Southwest

Location: Riga Airport

Current Time: Apr 4, 2020 at 12:15:35 pm

Latest Report: Apr 4, 2020 at 11:20 am


Visibility: N/A

Pressure: 30.01 "Hg

Humidity: 53%

Dew Point: 28 °F

Location of RigaLocation

Past Weather in Riga — Graph

°F

Riga Temperature Yesterday

Maximum temperature yesterday: 48 °F (at 2:20 pm)
Minimum temperature yesterday: 32 °F (at 11:20 pm)
Average temperature yesterday: 42 °F

High & Low Weather Summary for the Past Weeks

 TemperatureHumidityPressure
High57 °F (Mar 27, 1:20 pm)100% (Mar 30, 9:50 pm)30.80 "Hg (Mar 30, 9:50 pm)
Low16 °F (Mar 23, 4:50 am)21% (Mar 26, 3:20 pm)29.18 "Hg (Apr 3, 5:20 am)
Average36 °F61%30.20 "Hg
* Reported Mar 20 9:20 am — Apr 4 10:50 am, Riga. Weather by CustomWeather, © 2020

Note: Actual official high and low records may vary slightly from our data, if they occured in-between our weather recording intervals... More about our weather records

Riga Weather History for the Previous 24 Hours

Scroll right to see more
 ConditionsComfort  
Time TempWeatherWind HumidityBarometerVisibility
10:50 am
Sat, Apr 4
41 °FPassing clouds.7 mph66%30.01 "HgN/A
10:20 am41 °FPassing clouds.5 mph66%29.98 "HgN/A
9:50 am41 °FPassing clouds.5 mph66%29.98 "HgN/A
9:20 am37 °FPassing clouds.5 mph75%29.95 "HgN/A
8:50 am36 °FPassing clouds.3 mph81%29.95 "HgN/A
8:20 am34 °FPassing clouds.6 mph87%29.92 "HgN/A
7:50 am32 °FSunny.5 mph93%29.92 "Hg10 mi
7:20 am30 °FSunny.5 mph93%29.89 "Hg10 mi
6:50 am30 °FSunny.5 mph93%29.86 "Hg10 mi
6:20 am30 °FClear.5 mph93%29.86 "Hg10 mi
5:50 am30 °FPassing clouds.3 mph93%29.83 "HgN/A
5:20 am28 °FClear.5 mph100%29.83 "Hg10 mi
4:50 am30 °FPassing clouds.3 mph93%29.80 "HgN/A
4:20 am32 °FPassing clouds.5 mph93%29.80 "HgN/A
3:50 am30 °FPassing clouds.5 mph100%29.77 "HgN/A
3:20 am32 °FClear.5 mph93%29.77 "Hg10 mi
2:50 am32 °FClear.3 mph87%29.74 "Hg10 mi
2:20 am32 °FPassing clouds.5 mph87%29.74 "HgN/A
1:50 am32 °FClear.5 mph87%29.71 "Hg10 mi
1:20 am32 °FClear.5 mph80%29.71 "Hg10 mi
12:50 am34 °FClear.3 mph75%29.68 "Hg10 mi
12:20 am34 °FClear.5 mph70%29.68 "Hg10 mi
11:50 pm
Fri, Apr 3
32 °FPassing clouds.3 mph75%29.68 "HgN/A
11:20 pm32 °FPassing clouds.2 mph75%29.65 "HgN/A
10:50 pm36 °FPassing clouds.1 mph60%29.65 "HgN/A
10:20 pm36 °FPassing clouds.5 mph60%29.65 "HgN/A
9:50 pm39 °FPassing clouds.5 mph52%29.62 "HgN/A
9:20 pm39 °FPassing clouds.7 mph52%29.62 "HgN/A
8:50 pm39 °FPassing clouds.3 mph48%29.59 "HgN/A
8:20 pm41 °FPassing clouds.6 mph42%29.59 "HgN/A
7:50 pm43 °FPassing clouds.6 mph39%29.56 "HgN/A
7:20 pm45 °FPassing clouds.7 mph37%29.56 "HgN/A
6:50 pm45 °FPassing clouds.9 mph39%29.53 "HgN/A
6:20 pm45 °FPassing clouds.10 mph39%29.53 "HgN/A
5:50 pm46 °FPassing clouds.12 mph37%29.50 "HgN/A
5:20 pm46 °FPassing clouds.13 mph40%29.47 "HgN/A
4:50 pm46 °FPassing clouds.13 mph37%29.47 "HgN/A
4:20 pm46 °FPassing clouds.14 mph34%29.45 "HgN/A
3:50 pm46 °FPassing clouds.17 mph37%29.42 "HgN/A
3:20 pm48 °FPartly sunny.14 mph34%29.42 "HgN/A
2:50 pm46 °FPartly sunny.16 mph37%29.39 "HgN/A
2:20 pm48 °FPassing clouds.15 mph37%29.36 "HgN/A
1:50 pm45 °FPartly sunny.15 mph46%29.36 "HgN/A
1:20 pm46 °FScattered clouds.14 mph46%29.33 "HgN/A
12:50 pm45 °FScattered clouds.18 mph49%29.30 "HgN/A
12:20 pm45 °FScattered clouds.18 mph53%29.27 "HgN/A
Weather by CustomWeather, © 2020

See weather overview

Advertising